Home > Weather > Mönchengladbach > Past weeks

Flag for Germany Weather for the Past 2 Weeks in Mönchengladbach, North Rhine-Westphalia, Germany

Now
36 °F

Clear.


Feels Like: 36 °F
Forecast: 33 / 42 °F
Wind: 2 mph from East

Location: Monchengladbach Airport

Current Time: Feb 12, 2016 at 11:39:37 PM

Latest Report: Feb 12, 2016 at 7:50 PM


Visibility: 10 mi

Pressure: 29.42 "Hg

Humidity: 81%

Dew point: 30 °F

Location of MönchengladbachLocation

Historic Weather in Mönchengladbach — Graph

°F

Mönchengladbach Temperature Yesterday

Maximum temperature yesterday: 45 °F (at 1:20 PM)
Minimum temperature yesterday: 37 °F (at 7:50 AM)
Average temperature yesterday: 41 °F

High & Low Weather Summary for the Past Weeks

 TemperatureHumidityPressure
High54 °F (Feb 1, 12:20 PM)100% (Jan 30, 7:50 AM)30.33 "Hg (Jan 30, 7:50 AM)
Low36 °F (Feb 9, 7:20 PM)58% (Feb 7, 4:20 PM)28.80 "Hg (Feb 9, 4:20 PM)
Average45 °F89%29.76 "Hg
* Reported Jan 28 7:20 PM — Feb 12 7:50 PM, Mönchengladbach, Weather by CustomWeather, © 2016

Note: Actual official high and low records may vary slightly from our data, if they occured in-between our weather recording intervals... More about our weather records

Advertising

Mönchengladbach Weather History for the Previous 24 Hours

 ConditionsComfort  
Time TempWeatherWind HumidityBarometerVisibility
7:50 PM
Fri, Feb 12
36 °FClear.2 mph81%29.42 "Hg10 mi
7:20 PM37 °FClear.5 mph75%29.42 "Hg10 mi
6:50 PM37 °FClear.9 mph75%29.42 "Hg10 mi
6:20 PM39 °FPassing clouds.12 mph70%29.42 "HgN/A
5:50 PM41 °FPassing clouds.9 mph70%29.42 "HgN/A
5:20 PM41 °FPassing clouds.10 mph70%29.42 "HgN/A
4:50 PM41 °FPassing clouds.12 mph70%29.45 "HgN/A
4:20 PM41 °FPassing clouds.8 mph66%29.45 "HgN/A
3:50 PM41 °FPassing clouds.12 mph66%29.45 "HgN/A
3:20 PM41 °FPassing clouds.10 mph70%29.45 "HgN/A
2:50 PM43 °FPassing clouds.12 mph66%29.45 "HgN/A
2:20 PM41 °FPassing clouds.10 mph76%29.47 "HgN/A
1:50 PM41 °FPassing clouds.9 mph70%29.47 "HgN/A
1:20 PM43 °FPassing clouds.10 mph71%29.50 "HgN/A
12:50 PM41 °FPassing clouds.12 mph76%29.50 "HgN/A
12:20 PM41 °FPassing clouds.12 mph76%29.53 "HgN/A
11:50 AM41 °FClear.13 mph76%29.53 "Hg10 mi
11:20 AM41 °FClear.12 mph76%29.53 "Hg10 mi
10:50 AM41 °FClear.9 mph81%29.53 "Hg10 mi
10:20 AM39 °FClear.8 mph81%29.56 "Hg10 mi
9:50 AM39 °FClear.10 mph87%29.56 "Hg10 mi
9:20 AM39 °FPassing clouds.7 mph87%29.56 "HgN/A
8:50 AM37 °FPartly sunny.6 mph93%29.56 "HgN/A
8:20 AM37 °FScattered clouds.5 mph100%29.59 "HgN/A
7:50 AM37 °FBroken clouds.5 mph93%29.59 "Hg5 mi
Weather by CustomWeather, © 2016

See weather overviewHow to use our weather pages